Other Surface Observations
Issued by NWS

Home | Current Version | Previous Version | Text Only | Print | Product List | Glossary On
Versions: 1 2 3 4 5 6 7 8 9 10 11 12 13 14 15 16 17 18 19 20 21 22 23 24 25 26 27 28 29 30 31 32 33 34 35 36 37 38 39 40 41 42 43 44 45 46 47 48 49 50
000
SXUS52 KTAE 271218
OSOTAE
OSOTAE
North Florida/South Alabama/Southwest Georgia Weather Roundup
National Weather Service Tallahassee Florida
700 AM EST FRI FEB 27 2015

Note: "fair" indicates few or no clouds below 12,000 feet with no
significant weather and/or obstructions to visibility.

!FLZ017-115-028-034-025-271300
...North Florida...

CITY           SKY/WX    TMP DP  RH WIND       PRES   REMARKS
TALLAHASSEE    MOCLDY    42  33  70 N9        30.26R WCI  37
APALACHICOLA   PTCLDY    43  36  76 NE10      30.25R WCI  37
PERRY          CLOUDY    44  41  89 N9        30.25R WCI  39
CROSS CITY       N/A     46  41  82 NE7       30.22R WCI  42
JACKSONVILLE   CLOUDY    44  43  96 N5        30.21R WCI  42
$$

!FLZ112-006-005-002-011-271300
...Florida Panhandle...

CITY           SKY/WX    TMP DP  RH WIND       PRES   REMARKS
MARIANNA       PTCLDY    36  34  92 N6        30.29R WCI  31
BONIFAY        FAIR      36  31  82 N7        30.31R WCI  30
PANAMA CITY NW FAIR      37  32  82 N12       30.27R WCI  29
TYNDALL AFB    PTCLDY    38  34  85 N8        30.27R WCI  32
TYND DRONE APT FAIR      38  36  91 N16       30.27R WCI  29
DE FUNIAK SPR  FAIR      33  31  92 N10       30.30S WCI  25
EGLIN AFB      MOCLDY    35  31  84 N12       30.29R WCI  27
DESTIN         MOCLDY    38  32  79 N12       30.30R WCI  30
HURLBURT       MOCLDY    35  29  78 N14       30.29R WCI  26
CRESTVIEW      MOCLDY    33  30  88 N6        30.33R WCI  28
PENSACOLA      PTCLDY    34  30  85 N13       30.33R WCI  25
$$

!ALZ063-066-271300
...South Alabama...

CITY           SKY/WX    TMP DP  RH WIND       PRES   REMARKS
DOTHAN         MOCLDY    34  30  85 N9        30.33R WCI  27
OZARK CAIRNS   MOCLDY    33  29  86 N9        30.30R WCI  25
FT RUCKER HELI MOCLDY    32  29  88 CALM      30.31R
RUCKER HELI 3  FAIR      32  30  94 N7        30.32R FOG     WCI  25
RUCKER HELI 2  FAIR      32  29  88 N6        30.30R WCI  26
FLORALA APT    MOCLDY    32  29  88 N5        30.33R WCI  27
ANDALUSIA      PTCLDY    34  29  82 N5        30.33R WCI  30
TROY           CLEAR     30  27  88 N7        30.33R WCI  23
EUFALA         FAIR      32  28  85 CALM      30.32R
MOBILE         PTCLDY    30  28  92 N13       30.36R FOG     WCI  20
$$

!GAZ120>161-271300
...Southwest and South Central Georgia...

CITY           SKY/WX    TMP DP  RH WIND       PRES   REMARKS
THOMASVILLE    FAIR      39  39 100 N5        30.27R WCI  36
BAINBRIDGE     PTCLDY    39  36  87 N6        30.29R WCI  35
MOODY AFB      CLOUDY    41  37  84 N7        30.24R WCI  37
VALDOSTA       CLOUDY    42  37  82 N8        30.25R WCI  37
MOULTRIE       MOCLDY    37  36  93 CALM      30.27R
BLAKELY        FAIR      37  34  87 N5        30.30R WCI  34
ALBANY         PTCLDY    36  32  85 N6        30.30R WCI  31
TIFTON         FAIR      39  34  82 CALM      30.26R
FITZGERALD     FAIR      40  35  82 N6        30.29R WCI  36
CORDELE        PTSUNNY   37  34  87 N5        30.30R WCI  34
AMERICUS       FAIR      32  32 100 N5        30.31R WCI  27
HOMERVILLE     FAIR      43  41  93 N3        30.26R
$$

!GMZ750-755-770-775-271300
...Coastal and Buoy Obs...

STATION/POSITION TIME  TEMP    WIND        PRES    VSBY  WAVE
                       AIR SEA DIR/SP/G                  HT/PER
                 (UTC) (F)     (DEG/KT/KT) (MB)    (MI)  (FT/S)
KEATON BEACH     1200   44      10/  6/  9 1024.0R
CEDAR KEY        1154   47      40/  7/  9 1023.0
C TOWER          1200   44      10/ 19/ 21 1023.8R
APALACHICOLA BUO 1200   54 65   40/ 17/ 21 1021.8R         5/ 6
PANAMA CITY BUOY 1109   52 67   20/ 17/ 21 1023.6          5/ 5
MOBILE BUOY      1130   46 64   30/ 21/ 29 1025.7R         7/ 6
ORANGE BCH AL BU 1200   41 62   10/ 21/ 25 1025.7R         3/ 4
$$



USA.gov is the U.S. government's official web portal to all federal, state and local government web resources and services.